COSMOS 1275 DEB, 42154

Orbit data source: Space-Track

COSMOS 1275 DEB, 42154 is space debris in LEO originally from a launch on Thu, 04 Jun 1981 UTC launched from the Plesetsk Missile And Space Complex (PKMTR). Debris objects in space refer to the collection of defunct objects orbiting the Earth. Examples of debris include non-operational satellites, rocket bodies, and fragments generated from explosions, collisions, or faulty payload assembly.

Loading next visibility...
Identifier
42154, 1981-053RS
Orbit
LEO
Country
Flag of CISCIS
Related business
Manufacturer
Unknown
Mission
Spacecraft
Bus & Motor
Unknown
Mass
Unknown
Launch date (UTC)
1981-06-04 (45 years ago)
Launch vehicle
Unknown
Launch site
Plesetsk Missile And Space Complex (PKMTR)
Object type
Payload
Rocket body
Debris
Shape & HBR
Unknown shape, 0.1 m
Radar Cross Section
Small (<0.1 m²)

Expand to show TLE details & history
Last TLE update: 1 week ago

TLE from 1 week ago
0 COSMOS 1275 DEB
1 42154U 81053RS  25344.55935145  .00001001  00000-0  10882-2 0  9991
2 42154  82.8068  94.5452 0128219 114.3822 263.7555 13.68383200545789
Epoch: 2025-12-10T13:25Z
TLE epoch observation values (Epoch: 2025-12-10T13:25:27.965Z)
Latitude
16.5285°
Longitude
175.78604°
Altitude
1,019.129 km
Speed
7.338 km/s
True Right ascension
06h 26m 43s
True Declination
16° 26' 18"
Sunlit
Object was in full shadow at epoch
Visualization orbit readout
Latitude
Unknown
Longitude
Unknown
Altitude
Unknown
Speed
Unknown
Apparent Right ascension
Unknown
Apparent Declination
Unknown
Sunlit
N/A
Visualization observer readout
Local Sidereal Time
10:52:26
Azimuth
Unknown
Elevation
Unknown
Doppler factor
Unknown
Orbital elements
Apogee altitude
1,097.178 km
Perigee altitude
907.909 km
Semi-major axis
7,380.681 km
Eccentricity
0.01282
Inclination
82.8068°
RAAN
94.5452°
Arg. of periapsis
114.3822°
True anomaly
262.29764°
Mean anomaly
263.7555°
Eccentric anomaly
263.02629°
Mean motion
3.42293 °/min
Orbital period
105.17 mins
BSTAR
0.0010882
Loading maneuver chart data...
Computing Atmospheric mass density...
Loading historical data...
Loading historical data...
Loading historical data...
Loading historical data...
Loading historical data...
Loading historical data...
Loading historical data...

Documentation

Showing up to 5 results
|